Stations météo

réclame
Mon MeteoGroup
F3, Pays-Bas (6239): Température de l'air & dewpoint: 11.02.2019 13:00:00 - 17.02.2019 13:00:00 (CET)F3, Pays-Bas (6239): Vitesse du vent & gusts: 11.02.2019 13:00:00 - 17.02.2019 13:00:00 (CET)F3, Pays-Bas (6239): Direction du vent: 11.02.2019 13:00:00 - 17.02.2019 13:00:00 (CET)F3, Pays-Bas (6239): reduced air pressure: 11.02.2019 13:00:00 - 17.02.2019 13:00:00 (CET)F3, Pays-Bas (6239): visibility: 11.02.2019 13:00:00 - 17.02.2019 13:00:00 (CET)
Date & Time tt [°C] td [°C] ff [km/h] ff [knt] fx [km/h] fx [knt] dd ppp [hPa] vv [km]
17.02.2019 13:00:00 8,0 5,0 42 23 - - S 1016,5 5
17.02.2019 12:00:00 7,6 5,2 39 21 36 19 SSE 1017,1 5
17.02.2019 11:00:00 7,5 5,7 39 21 36 19 S 1017,6 3,9
17.02.2019 10:00:00 7,6 5,8 39 21 40 21 S 1018,0 3,5
17.02.2019 09:00:00 7,5 6,3 39 21 36 19 S 1018,4 3,3
17.02.2019 08:00:00 7,6 6,7 39 21 36 19 S 1018,3 9
17.02.2019 07:00:00 7,9 6,9 35 19 36 19 S 1018,2 10
17.02.2019 06:00:00 7,7 6,9 39 21 36 19 SSW 1018,5 10
17.02.2019 05:00:00 7,9 6,9 41 22 40 21 SSW 1018,8 9
17.02.2019 04:00:00 7,9 6,8 39 21 36 19 SSW 1019,1 9
17.02.2019 03:00:00 8,0 6,9 37 20 36 19 SSW 1019,4 9
17.02.2019 02:00:00 8,0 6,9 39 21 40 21 SSW 1019,6 8
17.02.2019 01:00:00 8,2 6,9 41 22 40 21 SSW 1019,8 9
17.02.2019 00:00:00 8,3 6,9 39 21 36 19 SW 1020,1 8
16.02.2019 23:00:00 7,9 6,8 37 20 36 19 SW 1020,3 7
16.02.2019 22:00:00 7,8 6,8 35 19 32 18 SSW 1020,2 5
16.02.2019 21:00:00 7,5 6,7 24 13 32 18 WSW 1020,2 3,6
16.02.2019 20:00:00 7,4 6,7 37 20 43 23 SW 1020,2 4,9
16.02.2019 19:00:00 7,4 6,5 37 20 36 19 SW 1020,0 4,8
16.02.2019 18:00:00 7,4 6,4 29 16 36 19 SW 1019,8 4,8
16.02.2019 17:00:00 7,7 6,5 39 21 40 21 WSW 1019,7 6
16.02.2019 16:00:00 7,8 6,4 39 21 36 19 WSW 1019,7 6
16.02.2019 15:00:00 7,8 6,3 35 19 40 21 WSW 1019,8 7
16.02.2019 14:00:00 7,9 6,3 39 21 40 21 WSW 1020,3 8
16.02.2019 13:00:00 7,9 6,3 41 22 40 21 WSW 1020,1 8
16.02.2019 12:00:00 8,3 6,0 44 24 43 23 WSW 1019,9 8
16.02.2019 11:00:00 8,4 5,8 42 23 43 23 SW 1019,1 9
16.02.2019 10:00:00 7,7 5,3 41 22 47 25 SW 1018,8 9
16.02.2019 09:00:00 8,4 5,1 42 23 43 23 SW 1018,9 10
16.02.2019 08:00:00 7,7 4,8 44 24 43 23 SW 1018,5 10
16.02.2019 07:00:00 7,7 4,8 44 24 43 23 SW 1018,4 10
16.02.2019 06:00:00 7,9 4,9 44 24 47 25 SSW 1018,6 10
16.02.2019 05:00:00 7,6 5,3 42 23 43 23 SSW 1018,9 7
16.02.2019 04:00:00 7,7 5,0 42 23 40 21 SSW 1019,1 8
16.02.2019 03:00:00 7,8 4,8 42 23 40 21 SW 1020,0 8
16.02.2019 02:00:00 7,8 4,8 42 23 43 23 SSW 1020,8 8
16.02.2019 01:00:00 7,9 4,5 42 23 40 21 SSW 1021,1 10
16.02.2019 00:00:00 7,9 4,4 44 24 43 23 SSW 1021,6 10
15.02.2019 23:00:00 7,5 4,4 41 22 40 21 SSW 1021,8 10
15.02.2019 22:00:00 7,3 4,7 41 22 40 21 S 1022,7 9
15.02.2019 21:00:00 7,0 5,0 41 22 40 21 S 1023,0 9
15.02.2019 20:00:00 7,0 4,9 41 22 40 21 S 1023,6 10
15.02.2019 19:00:00 7,1 5,0 41 22 40 21 S 1024,0 10
15.02.2019 18:00:00 7,3 4,8 39 21 40 21 S 1024,4 10
15.02.2019 17:00:00 7,7 4,8 39 21 58 31 S 1024,7 10
15.02.2019 16:00:00 7,9 4,6 37 20 36 19 S 1025,4 10
15.02.2019 15:00:00 8,0 4,8 34 18 32 18 S 1026,1 10
15.02.2019 14:00:00 8,0 4,8 37 20 36 19 S 1026,9 10
15.02.2019 13:00:00 7,8 5,0 35 19 36 19 S 1027,5 10
15.02.2019 12:00:00 7,7 4,7 34 18 32 18 S 1028,2 10
15.02.2019 11:00:00 7,8 4,6 29 16 29 16 S 1028,7 10
15.02.2019 10:00:00 7,8 4,5 28 15 29 16 S 1029,0 10
15.02.2019 09:00:00 7,7 4,5 31 17 50 27 S 1029,1 10
15.02.2019 08:00:00 7,6 4,4 31 17 32 18 S 1029,1 10
15.02.2019 07:00:00 7,9 4,1 34 18 32 18 SSW 1029,1 10
15.02.2019 06:00:00 7,7 4,4 35 19 32 18 SSW 1029,3 10
15.02.2019 05:00:00 7,7 4,4 35 19 36 19 SSW 1029,5 10
15.02.2019 04:00:00 7,7 4,5 35 19 36 19 SSW 1029,8 10
15.02.2019 03:00:00 7,3 4,4 39 21 36 19 SSW 1030,2 10
15.02.2019 02:00:00 7,4 4,3 37 20 36 19 SSW 1030,6 10
15.02.2019 01:00:00 7,2 4,3 41 22 40 21 SSW 1030,8 10
15.02.2019 00:00:00 6,8 5,2 39 21 40 21 SSW 1030,8 10
14.02.2019 23:00:00 7,1 5,2 37 20 36 19 SSW 1030,7 10
14.02.2019 22:00:00 7,0 5,1 29 16 32 18 SW 1030,7 10
14.02.2019 21:00:00 7,1 4,9 31 17 32 18 SW 1030,8 10
14.02.2019 20:00:00 7,1 5,0 29 16 29 16 SW 1031,2 10
14.02.2019 19:00:00 7,0 5,2 26 14 43 23 SW 1031,4 10
14.02.2019 18:00:00 7,0 5,1 28 15 29 16 SW 1031,2 10
14.02.2019 17:00:00 7,0 5,5 31 17 32 18 WSW 1031,2 9
14.02.2019 16:00:00 7,0 5,6 35 19 32 18 SW 1031,3 10
14.02.2019 15:00:00 7,1 5,6 37 20 36 19 WSW 1031,4 10
14.02.2019 14:00:00 7,1 5,5 35 19 36 19 WSW 1031,4 10
14.02.2019 13:00:00 7,0 5,4 31 17 32 18 WSW 1031,6 10
14.02.2019 12:00:00 6,9 5,4 29 16 32 18 WSW 1031,9 10
14.02.2019 11:00:00 6,9 5,4 31 17 32 18 WSW 1031,4 9
14.02.2019 10:00:00 6,9 5,4 35 19 36 19 WSW 1031,1 10
14.02.2019 09:00:00 7,8 5,4 35 19 36 19 SW 1030,7 10
14.02.2019 08:00:00 6,9 5,3 39 21 36 19 WSW 1030,2 10
14.02.2019 07:00:00 7,0 5,5 37 20 36 19 WSW 1030,2 10
14.02.2019 06:00:00 7,1 5,5 31 17 36 19 SW 1029,8 10
14.02.2019 05:00:00 7,1 5,6 34 18 32 18 WSW 1030,3 10
14.02.2019 04:00:00 7,3 5,9 31 17 32 18 SW 1030,1 9
14.02.2019 03:00:00 7,3 5,9 37 20 36 19 SW 1029,9 8
14.02.2019 02:00:00 7,3 6,0 29 16 32 18 SW 1029,9 8
14.02.2019 01:00:00 7,4 6,0 34 18 32 18 SW 1029,9 9
14.02.2019 00:00:00 7,2 6,0 35 19 36 19 SW 1029,6 8
13.02.2019 23:00:00 7,1 5,9 37 20 36 19 SW 1029,8 9
13.02.2019 22:00:00 7,1 5,9 34 18 40 21 SW 1029,6 10
13.02.2019 21:00:00 7,2 5,9 35 19 40 21 SW 1029,7 10
13.02.2019 20:00:00 7,4 5,7 37 20 40 21 SW 1029,6 10
13.02.2019 19:00:00 7,4 5,6 39 21 40 21 WSW 1029,3 10
13.02.2019 18:00:00 7,4 5,8 41 22 40 21 WSW 1029,2 10
13.02.2019 17:00:00 7,5 6,0 44 24 43 23 SW 1028,9 10
13.02.2019 16:00:00 7,4 6,0 42 23 43 23 WSW 1028,8 10
13.02.2019 15:00:00 7,5 6,1 50 27 47 25 WSW 1028,7 10
13.02.2019 14:00:00 7,4 6,2 42 23 47 25 WSW 1028,7 10
13.02.2019 13:00:00 7,2 6,3 46 25 47 25 WSW 1028,8 8
13.02.2019 12:00:00 7,3 6,4 44 24 43 23 WSW 1028,9 10
13.02.2019 11:00:00 7,4 6,5 41 22 40 21 WSW 1029,0 10
13.02.2019 10:00:00 7,3 6,4 35 19 36 19 SW 1029,1 9
13.02.2019 09:00:00 7,3 6,3 34 18 32 18 WSW 1029,0 7
13.02.2019 08:00:00 7,2 6,4 31 17 29 16 WSW 1028,9 6
13.02.2019 07:00:00 7,3 6,4 35 19 32 18 WSW 1028,9 6
13.02.2019 06:00:00 7,4 6,5 29 16 32 18 WSW 1028,5 6
13.02.2019 05:00:00 7,4 6,4 37 20 40 21 W 1028,5 6
13.02.2019 04:00:00 7,4 6,2 41 22 40 21 WSW 1028,2 8
13.02.2019 03:00:00 7,5 6,3 42 23 43 23 WSW 1027,8 9
13.02.2019 02:00:00 7,6 6,3 44 24 47 25 WSW 1027,6 9
13.02.2019 01:00:00 7,6 6,2 50 27 47 25 WSW 1027,5 9
13.02.2019 00:00:00 7,6 6,1 48 26 50 27 WSW 1027,2 9
12.02.2019 23:00:00 7,7 5,9 54 29 50 27 W 1027,0 10
12.02.2019 22:00:00 7,6 5,8 52 28 54 29 WSW 1026,9 10
12.02.2019 21:00:00 7,3 5,6 50 27 50 27 WSW 1026,9 10
12.02.2019 20:00:00 7,0 5,5 52 28 50 27 WSW 1026,9 10
12.02.2019 19:00:00 6,8 5,3 48 26 47 25 SW 1026,0 10
12.02.2019 18:00:00 6,6 4,9 48 26 50 27 WSW 1026,0 10
12.02.2019 17:00:00 6,7 4,8 46 25 47 25 SW 1026,3 10
12.02.2019 16:00:00 6,7 4,6 46 25 43 23 WSW 1026,6 10
12.02.2019 15:00:00 - - 42 23 - - WSW 1027,2 10
12.02.2019 14:00:00 - - - - - - - - -
12.02.2019 13:00:00 - - - - - - - - -
12.02.2019 12:00:00 - - - - - - - - -
12.02.2019 11:00:00 - - 31 17 29 16 WSW 1028,5 -
12.02.2019 10:00:00 - - 28 15 29 16 WSW 1028,4 -
12.02.2019 09:00:00 - - 26 14 25 14 WSW 1028,2 -
12.02.2019 08:00:00 - - 21 11 25 14 WSW 1028,0 -
12.02.2019 07:00:00 - - 26 14 29 16 W 1028,0 -
12.02.2019 06:00:00 - - 29 16 29 16 W 1028,3 -
12.02.2019 05:00:00 - - 34 18 32 18 W 1027,9 -
12.02.2019 04:00:00 - - 39 21 40 21 WNW 1027,9 -
12.02.2019 03:00:00 - - 39 21 40 21 WNW 1028,1 -
12.02.2019 02:00:00 - - 31 17 32 18 NW 1027,9 -
12.02.2019 01:00:00 - - 29 16 47 25 NW 1027,8 -
12.02.2019 00:00:00 - - 37 20 43 23 WNW 1027,5 -
11.02.2019 23:00:00 - - 42 23 50 27 NW 1027,3 -
11.02.2019 22:00:00 - - 48 26 50 27 WNW 1026,3 -
11.02.2019 21:00:00 - - 34 18 40 21 NW 1025,8 -
11.02.2019 20:00:00 - - 48 26 54 29 WNW 1025,5 -
11.02.2019 19:00:00 - - 46 25 50 27 NW 1024,4 -
11.02.2019 18:00:00 - - 46 25 50 27 NW 1023,6 -
11.02.2019 17:00:00 - - 50 27 54 29 NW 1022,7 -
11.02.2019 16:00:00 - - 52 28 54 29 NW 1021,9 -
11.02.2019 15:00:00 - - 44 24 54 29 NW 1020,8 -
11.02.2019 14:00:00 - - 50 27 54 29 NW 1019,3 -
11.02.2019 13:00:00 - - 52 28 58 31 NNW 1018,5 -

tt = Température de l'air
td = dewpoint
ff = Vitesse du vent
fx = gusts
dd = Direction du vent
ppp = reduced air pressure
vv = visibility

stations d'obs. à proximité